Location: Bottenau
(48.5138°N, 8.0462°E)
Time: 05:34:37
(UTC+00:00)

SPOT 3 Rocket - Pass Details

Date: 18 April 2021
Orbit: 778 x 795 km, 98.7° (Epoch: 09 May)

Event Time Altitude Azimuth Distance (km) Brightness Sun altitude
Exits shadow 20:03:44 16° 166° (SSE) 1,958 5.2 -15.4°
Maximum altitude 20:07:57 84° 255° (WSW) 799 3.6 -16.0°
Drops below altitude 10° 20:13:10 10° 344° (NNW) 2,356 6.9 -16.6°
Sets 20:15:29 0° 345° (NNW) 3,287 7.7 -16.9°
